OBJECT G, 69578

Orbit data source: Space-Track

You're viewing an Uncataloged Satellite

Recently launched and/or uncataloged satellites may have evolving metadata. Metadata may include but not limited to: Owner, Maufacturer, Bus, Motor, and Mission.

OBJECT G, 69578 is a satellite owned by Zhongguo Xingwang (CN) in LEO that was launched on Wed, 17 Jun 2026 UTC via a CHANG ZHENG 12 launch vehicle from the Wenchang Satellite Launch Center (WSC). Unknown objects in Earth's orbit typically refer to objects detected orbiting the Earth but have not yet been identified or cataloged. These objects could be anything from previously untracked satellites, spent rocket stages, debris from satellite collisions, or even natural meteoroids temporarily captured by Earth's gravity.

Loading next visibility...
Identifier
69578, 2026-137G
Orbit
LEO
Country
Flag of CNCN / PRC
Related business
Manufacturer
YINNT
Mission
Operational spacecraft
Bus & Motor
XINGWANG Y, Unknown motor
Mass
~800 kg wet, ~800 kg dry
Launch date (UTC)
2026-06-17 (2 days ago)
Launch vehicle
CHANG ZHENG 12
Launch site
Wenchang Satellite Launch Center (WSC)
Object type
Unknown
Shape & HBR
Unknown
Radar Cross Section
RCS unknown

Expand to show TLE details & history
Last TLE update: 18 hours ago

TLE from 18 hours ago
0 OBJECT G
1 69578U 26137G   26170.02465601 -.00000120  00000-0  20829-4 0  9993
2 69578  49.9992 248.0744 0010339 235.8602 124.1317 13.92603032   288
Epoch: 2026-06-19T00:35Z
TLE epoch observation values (Epoch: 2026-06-19T00:35:30.279Z)
Latitude
-0.00004°
Longitude
-28.06136°
Altitude
924.283 km
Speed
7.389 km/s
True Right ascension
16h 32m 17s
True Declination
0° 00' 00"
Sunlit
Object was in full shadow at epoch
Visualization orbit readout
Latitude
Unknown
Longitude
Unknown
Altitude
Unknown
Speed
Unknown
Apparent Right ascension
Unknown
Apparent Declination
Unknown
Sunlit
N/A
Visualization observer readout
Local Sidereal Time
05:47:36
Azimuth
Unknown
Elevation
Unknown
Doppler factor
Unknown
Orbital elements
Apogee altitude
927.796 km
Perigee altitude
912.704 km
Semi-major axis
7,298.387 km
Eccentricity
0.00103
Inclination
49.9992°
RAAN
248.0744°
Arg. of periapsis
235.8602°
True anomaly
124.2297°
Mean anomaly
124.1317°
Eccentric anomaly
124.18071°
Mean motion
3.48099 °/min
Orbital period
103.42 mins
BSTAR
0.000020829
Loading maneuver chart data...
Computing Atmospheric mass density...
Loading historical data...
Loading historical data...
Loading historical data...
Loading historical data...
Loading historical data...
Loading historical data...
Loading historical data...

Documentation

Showing up to 5 results
|